Location: Capdenac-le-Haut
(44.5833°N, 2.0667°E)
Time: 04:43:39
(UTC+00:00)

Daily predictions for brighter satellites

Satellite Brightness Start Highest point End
(mag) Time Altitude Azimuth Time Altitude Azimuth Time Altitude Azimuth
ATLAS 2AS CENTAUR R/B 3.0 00:09:45 60° WNW 00:10:01 60° NW 00:16:48 10° NNE
Cosmos 1980 Rocket 2.9 00:20:05 10° NNW 00:24:19 51° NNW 00:24:19 51° NNW
Cosmos 2369 4.3 00:31:26 10° NNW 00:36:37 52° NE 00:36:37 52° NE
Cosmos 2333 Rocket 3.9 00:48:43 10° N 00:53:36 29° NE 00:57:05 16° E
USA 281 4.1 00:51:27 25° ESE 00:54:46 43° NE 01:00:55 10° NNW
Cosmos 2082 Rocket 2.5 00:59:24 64° NNE 00:59:24 64° NNE 01:04:14 10° NNE
Cosmos 1833 Rocket 4.4 01:00:04 21° WNW 01:00:44 22° NW 01:05:02 10° N
Cosmos 2322 Rocket 4.2 01:03:12 10° N 01:07:47 25° NE 01:12:22 10° ESE
NOSS 3-3 (A) 4.3 01:14:12 45° E 01:14:12 45° E 01:18:57 10° NE
ACS3 Solar Sail 1.7 01:12:37 10° N 01:18:32 82° NW 01:18:32 82° NW
CZ-4C R/B 2.6 01:22:06 46° N 01:22:06 46° N 01:26:18 10° NNE
SL-16 R/B 2.9 01:17:41 10° NNW 01:23:14 51° ENE 01:24:53 39° ESE
GP-B 4.4 01:20:49 10° N 01:23:25 35° N 01:23:25 35° N
SL-4 R/B 4.2 01:31:34 20° ENE 01:31:34 20° ENE 01:32:59 10° E
NOSS 3-3 (C) 4.0 01:30:27 54° E 01:30:27 54° E 01:35:50 10° NE
Cosmos 2058 Rocket 4.1 01:32:04 44° N 01:32:04 44° N 01:35:06 10° N
ATLAS 3B R/B 3.5 01:23:46 10° NW 01:29:23 39° W 01:29:23 39° W
USA 267 3.7 01:27:23 10° ENE 01:33:38 44° SE 01:34:01 44° SE
Cosmos 2026 Rocket 4.4 01:29:31 10° NNW 01:35:02 49° WNW 01:35:02 49° WNW
Cosmos 909 Rocket 4.3 01:37:58 52° WNW 01:38:45 55° NW 01:45:00 10° NNE
Cosmos 1092 Rocket 4.4 01:43:24 10° NNW 01:48:43 45° WNW 01:48:43 45° WNW
Meteor 2-6 Rocket 4.1 01:49:06 76° SSE 01:49:33 84° E 01:55:27 10° NNE
Meteor 1-26 Rocket 4.5 01:51:49 51° WNW 01:51:49 51° WNW 01:56:43 10° N
IDEFIX/ARIANE 42P 2.5 01:52:13 10° N 01:57:22 72° WNW 01:57:22 72° WNW
Envisat 4.1 01:55:15 10° NNE 01:59:57 37° E 02:01:23 31° SE
Iridium 4 Rocket 4.2 02:03:00 36° ESE 02:04:13 44° E 02:08:57 10° NNE
MOZ.5/SAFIR/RUBIN 5/SL-8 4.0 02:05:32 53° SE 02:06:23 65° ENE 02:11:00 10° N
H-2A R/B 4.1 02:06:25 21° ESE 02:07:45 27° ENE 02:10:50 10° N
Cosmos 44 Rocket 4.3 02:08:21 37° WNW 02:08:51 37° NW 02:13:40 10° NNE
Cosmos 1980 Rocket 4.5 02:05:46 10° WNW 02:06:02 11° WNW 02:06:02 11° WNW
USA 234 4.1 02:03:47 10° E 02:10:01 49° NNE 02:16:16 10° NW
Cosmos 1975 3.6 02:08:01 10° N 02:10:36 43° N 02:10:36 43° N
ADEOS II 3.6 02:08:55 10° NE 02:13:27 29° E 02:16:28 17° SE
Cosmos 1763 Rocket 3.5 02:13:16 62° SSE 02:14:05 75° ESE 02:19:23 10° NNE
COSMOS 2406 3.6 02:14:30 45° W 02:15:20 48° WNW 02:20:55 10° NNE
ALOS 3.3 02:13:47 10° NNE 02:18:02 38° E 02:19:31 30° SE
MSX 4.1 02:13:21 10° N 02:18:54 51° WNW 02:19:47 47° W
CZ-2D R/B 2.8 02:17:04 10° NNE 02:22:10 47° E 02:24:32 29° SSE
ADEOS Rocket 3.5 02:17:46 10° NNE 02:25:23 78° WNW 02:28:49 38° SSW
Cosmos 1375 Rocket 4.5 02:31:37 45° SW 02:33:49 81° NW 02:40:25 10° NNE
Cosmos 1354 Rocket 3.9 02:29:14 10° NNW 02:34:32 88° ENE 02:38:18 19° SSE
Cosmos 1503 Rocket 3.9 02:30:41 10° NNW 02:35:53 63° WSW 02:37:01 49° SSW
Cosmos 2360 Rocket 2.1 02:31:13 10° NNW 02:36:56 85° WSW 02:42:36 10° SSE
FENGYUN 3A 4.1 02:31:59 10° N 02:37:09 46° WNW 02:38:14 41° W
Cosmos 2333 Rocket 2.3 02:32:40 10° NW 02:38:08 50° WSW 02:38:59 46° SW
Alouette 2 Rocket 4.4 02:35:05 10° N 02:38:53 41° ENE 02:41:40 14° SE
USA 281 3.5 02:38:17 39° SW 02:39:15 41° WSW 02:45:25 10° NW
Cosmos 540 Rocket 3.4 02:41:19 50° SW 02:42:36 71° WNW 02:47:45 10° NNE
Cosmos 2082 Rocket 4.1 02:41:13 15° WNW 02:43:22 18° NW 02:47:13 10° N
Cosmos 2221 3.1 02:43:58 37° WNW 02:43:58 37° WNW 02:47:36 10° N
Cosmos 468 Rocket 4.1 02:46:38 35° S 02:48:53 76° ESE 02:54:11 10° NNE
NPP 4.5 02:45:21 10° N 02:50:11 35° WNW 02:51:27 31° W
Resurs 1-4 Rocket 2.0 02:45:33 10° NNE 02:50:53 88° WNW 02:53:19 33° SSW
Meteor 2-9 Rocket 4.4 02:46:15 10° NNW 02:51:14 42° W 02:52:07 39° WSW
Cosmos 2278 4.0 02:46:20 10° NW 02:51:42 43° WSW 02:52:57 37° SW
BREEZE-M DEB (TANK) 3.9 02:50:12 23° NW 02:51:50 46° NNE 02:58:38 10° E
Cosmos 2322 Rocket 2.2 02:46:40 10° NNW 02:52:13 60° WSW 02:56:37 16° S
DNEPR-1 R/B 4.5 02:49:29 10° NNW 02:54:55 75° NE 03:01:35 10° SE
Cosmos 1833 4.1 02:53:59 36° SSW 02:56:27 80° WNW 03:02:11 10° NNE
Cosmos 1766 Rocket 3.6 02:53:57 10° N 02:58:18 77° E 03:01:40 16° SSE
ACS3 Solar Sail 3.6 02:56:54 10° NNW 03:00:11 15° WNW 03:02:06 13° WNW
Cosmos 1271 Rocket 4.0 03:01:02 23° NW 03:01:02 23° NW 03:03:20 10° NNW
H-2A R/B 2.0 02:59:52 10° NNE 03:05:02 86° ESE 03:08:28 22° SSW
Cosmos 2219 Rocket 2.1 03:00:32 10° NNW 03:06:11 81° WSW 03:11:50 10° SSE
SL-16 R/B 3.2 03:02:24 10° NW 03:06:38 25° W 03:06:38 25° W
SL-4 R/B 1.7 03:05:08 28° WNW 03:07:01 66° SW 03:10:46 10° SE
Meteor 1-11 Rocket 4.0 03:02:43 10° NNW 03:08:22 49° W 03:11:37 24° SSW
CZ-3 Stage 3 3.9 03:05:05 25° SW 03:09:09 39° SSE 03:29:16 10° ESE
USA 290 3.0 03:10:18 35° WNW 03:10:19 35° WNW 03:13:16 10° N
CZ-4C R/B 4.1 03:07:40 10° WNW 03:10:45 16° NNW 03:14:19 10° NNE
ARGOS 3.9 03:10:45 10° NNE 03:16:00 50° E 03:21:11 10° S
USA 267 3.5 03:10:18 10° NE 03:16:47 64° NNW 03:21:22 21° WSW
METEOR-M 4.2 03:13:19 10° NNE 03:18:40 79° ESE 03:23:23 13° S
Gbstr 26 Del rocket 2.5 03:19:26 14° WNW 03:22:30 62° SW 03:26:15 10° SE
Cosmos 2322 4.4 03:20:49 10° NNW 03:26:29 58° ENE 03:32:03 10° SE
ISS -3.7 03:29:12 31° SW 03:30:37 71° SSE 03:33:59 10° ENE
Cosmos 372 Rocket 3.9 03:25:29 10° NNW 03:30:38 69° WSW 03:35:42 10° S
JB-3 4.2 03:30:38 17° S 03:33:12 49° W 03:36:43 10° NNW
BREEZE-M DEB (TANK) 2.6 03:31:25 19° WSW 03:36:24 80° SSE 03:39:26 10° ENE
Cosmos 1655 Rocket 4.3 03:31:27 10° NNW 03:37:16 44° W 03:43:04 10° SSW
Meteor 2-4 Rocket 3.8 03:34:20 18° SSW 03:38:15 52° WNW 03:43:30 10° N
Envisat 4.0 03:34:23 10° N 03:38:45 30° WNW 03:41:31 18° WSW
Cosmos 1461 2.6 03:37:00 24° SW 03:39:07 66° NW 03:42:50 10° NNE
H-2A R/B 3.4 03:41:23 20° WSW 03:41:42 21° W 03:44:28 10° NW
Cosmos 2084 Rocket 4.1 03:38:07 10° WNW 03:41:53 32° WSW 03:45:40 10° S
Cosmos 1244 Rocket 4.5 03:35:49 10° NNW 03:42:01 69° W 03:48:08 10° S
Aureole 1 Rocket 3.7 03:38:03 10° NW 03:42:09 39° WSW 03:47:10 10° S
Cosmos 1066 Rocket 4.1 03:38:36 11° SSW 03:43:42 68° WNW 03:49:02 10° N
NOSS 3-4 (A) 3.9 03:37:13 10° NW 03:44:03 62° WSW 03:52:02 10° SSE
NOSS 3-4 (C) 3.9 03:37:46 10° NW 03:44:37 63° WSW 03:52:36 10° SSE
AQUA 3.8 03:41:30 10° NNE 03:46:13 89° WNW 03:50:53 10° SSW
Cosmos 1151 Rocket 3.6 03:43:15 10° S 03:47:22 58° E 03:51:33 10° NNE
Cosmos 1842 Rocket 3.8 03:46:03 15° SSW 03:49:25 47° WNW 03:53:37 10° N
Cosmos 1238 Rocket 3.9 03:50:21 14° W 03:50:44 15° WNW 03:52:31 10° NW
Cosmos 1500 Rocket 4.2 03:47:28 10° N 03:51:51 60° E 03:56:12 10° SSE
Nadezhda 2 Rocket 4.4 03:46:04 10° NNW 03:52:08 65° W 03:58:08 10° S
BREEZE-M DEB (TANK) 3.9 03:44:42 10° WNW 03:52:43 38° SW 03:55:45 10° SSE
USA 234 3.2 03:46:26 10° SE 03:52:54 65° SW 03:59:25 10° NW
ADEOS II 2.7 03:48:14 10° N 03:53:03 38° WNW 03:57:16 13° SW
BREEZE-M DEB (TANK) 4.4 03:50:16 10° WNW 03:53:06 19° N 03:54:54 10° NE
BREEZE-M DEB (TANK) 3.5 03:50:14 10° WNW 03:53:56 64° SSW 04:06:08 10° SE
ALOS 3.5 03:51:07 10° NNW 03:54:45 24° WNW 03:57:33 14° WSW
Cosmos 2297 Rocket 3.2 03:50:37 10° S 03:55:57 46° ESE 04:01:19 10° NE
Cosmos 1386 Rocket 4.5 03:49:57 10° N 03:56:07 84° W 04:02:20 10° S
S3M 4.4 03:52:25 10° S 03:58:42 69° E 04:04:58 10° NNE
CZ-2D R/B 3.3 03:57:36 10° N 04:01:51 25° WNW 04:05:48 11° WSW
Cosmos 841 Rocket 3.8 03:58:30 11° SW 04:03:14 51° WNW 04:08:19 10° NNE
Sich 1 3.1 03:59:32 10° NNW 04:03:35 52° W 04:07:35 10° S
SL-16 R/B 2.5 03:57:29 10° S 04:03:43 69° WSW 04:09:59 10° NNW
Okean 3 Rocket 3.7 04:00:16 10° NNW 04:04:38 55° W 04:08:59 10° S
Cosmos 1758 3.0 04:01:39 10° NNW 04:05:17 77° W 04:08:54 10° S
COSMOS 2428 2.7 03:59:46 10° NNW 04:05:31 82° WSW 04:11:12 10° SSE
CZ-3 R/B 3.9 03:44:17 10° WSW 04:08:18 38° SSW 04:16:19 10° SE
Cosmos 1898 Rocket 3.9 04:07:07 10° NW 04:11:55 40° WSW 04:16:41 10° S
Cosmos 1743 Rocket 4.1 04:08:31 10° N 04:12:54 64° E 04:17:13 10° SSE
Cosmos 1805 Rocket 3.5 04:09:04 10° NNW 04:13:28 75° W 04:17:48 10° S
Cosmos 1937 Rocket 3.7 04:11:25 10° NNW 04:16:25 50° WSW 04:21:21 10° S
DELTA 2 R/B (1) 4.4 04:14:03 10° SW 04:19:10 40° SSE 04:24:20 10° E
Cosmos 2360 Rocket 3.9 04:17:49 10° WNW 04:19:58 12° W 04:22:07 10° WSW
USA 276 1.3 04:19:23 10° W 04:20:55 33° SSW 04:22:38 10° SE
H-2A R/B 2.3 04:18:25 10° N 04:22:15 44° WNW 04:26:01 10° SW
Meteor 2-10 Rocket 4.3 04:21:59 10° NNW 04:26:28 31° W 04:31:04 10° SSW
In-Cosmos 22 4.4 04:24:17 10° SSW 04:29:22 47° WNW 04:34:33 10° N
Resurs 1-4 Rocket 4.0 04:27:11 10° NNW 04:29:51 14° NW 04:32:30 10° W
